Home   Weather   Stoke-on-Trent   Past weeks

Flag for United Kingdom Past Weather in Stoke-on-Trent, England, United Kingdom — Yesterday and Last 2 Weeks

Now
37 °F

Clear.


Feels Like: 34 °F
Forecast: 30 / 40 °F
Wind: 5 mph from East

Location: Manchester Airport

Current Time: Dec 4, 2016 at 12:08:25 am

Latest Report: Dec 3, 2016 at 11:20 pm


Visibility: 10 mi

Pressure: 30.30 "Hg

Humidity: 81%

Dew Point: 32 °F

Location of Stoke-on-TrentLocation

Past Weather in Stoke-on-Trent — Graph

°F

Stoke-on-Trent Temperature Yesterday

Maximum temperature yesterday: 45 °F (at 12:50 pm)
Minimum temperature yesterday: 36 °F (at 10:20 pm)
Average temperature yesterday: 42 °F

High & Low Weather Summary for the Past Weeks

 TemperatureHumidityPressure
High48 °F (Nov 25, 1:50 pm)100% (Nov 19, 2:20 am)30.57 "Hg (Nov 19, 2:20 am)
Low25 °F (Nov 26, 6:50 am)50% (Nov 28, 1:20 pm)29.06 "Hg (Nov 20, 4:50 am)
Average39 °F87%30.08 "Hg
* Reported Nov 18 10:20 pm — Dec 3 10:50 pm, Stoke-on-Trent, Weather by CustomWeather, © 2016

Note: Actual official high and low records may vary slightly from our data, if they occured in-between our weather recording intervals... More about our weather records

Advertising

Stoke-on-Trent Weather History for the Previous 24 Hours

Scroll right to see more
 ConditionsComfort  
Time TempWeatherWind HumidityBarometerVisibility
10:50 pm
Sat, Dec 3
36 °FClear.7 mph87%30.30 "Hg10 mi
10:20 pm36 °FClear.5 mph81%30.30 "Hg10 mi
9:50 pm37 °FClear.6 mph81%30.30 "Hg10 mi
9:20 pm39 °FClear.5 mph75%30.30 "Hg10 mi
8:50 pm41 °FPassing clouds.5 mph70%30.30 "HgN/A
8:20 pm41 °FPassing clouds.3 mph76%30.30 "HgN/A
7:50 pm43 °FPassing clouds.3 mph71%30.30 "HgN/A
7:20 pm43 °FPassing clouds.2 mph71%30.30 "HgN/A
6:50 pm41 °FPassing clouds.3 mph76%30.30 "HgN/A
6:20 pm43 °FPassing clouds.3 mph71%30.30 "HgN/A
5:50 pm43 °FPassing clouds.5 mph71%30.30 "HgN/A
5:20 pm43 °FPassing clouds.5 mph71%30.30 "HgN/A
4:50 pm43 °FPassing clouds.6 mph71%30.30 "HgN/A
4:20 pm43 °FPassing clouds.5 mph71%30.30 "HgN/A
3:50 pm43 °FPartly sunny.3 mph71%30.30 "HgN/A
3:20 pm43 °FPartly sunny.3 mph71%30.30 "HgN/A
2:50 pm43 °FPartly sunny.5 mph71%30.30 "HgN/A
2:20 pm45 °FPartly sunny.3 mph66%30.30 "HgN/A
1:50 pm45 °FPartly sunny.5 mph66%30.30 "HgN/A
1:20 pm43 °FPartly sunny.3 mph71%30.30 "HgN/A
12:50 pm45 °FPartly sunny.5 mph61%30.30 "HgN/A
12:20 pm43 °FPartly sunny.5 mph71%30.33 "HgN/A
11:50 am43 °FPartly sunny.5 mph76%30.33 "HgN/A
11:20 am43 °FPartly sunny.3 mph71%30.33 "HgN/A
10:50 am43 °FPartly sunny.3 mph71%30.33 "HgN/A
10:20 am43 °FPartly sunny.3 mph71%30.33 "HgN/A
9:50 am43 °FPartly sunny.3 mph76%30.33 "HgN/A
9:20 am43 °FPartly sunny.3 mph76%30.33 "HgN/A
8:50 am41 °FPartly sunny.2 mph81%30.33 "HgN/A
8:20 am43 °FOvercast.2 mph76%30.33 "HgN/A
7:50 am41 °FPassing clouds.3 mph81%30.33 "HgN/A
7:20 am41 °FPassing clouds.2 mph81%30.30 "HgN/A
6:50 am43 °FPassing clouds.7 mph76%30.30 "HgN/A
6:20 am41 °FOvercast.5 mph87%30.30 "HgN/A
5:50 am43 °FOvercast.5 mph87%30.30 "HgN/A
5:20 am43 °FOvercast.5 mph87%30.30 "HgN/A
4:50 am41 °FOvercast.1 mph93%30.30 "HgN/A
4:20 am43 °FMostly cloudy.3 mph87%30.30 "HgN/A
3:50 am41 °FMostly cloudy.2 mph100%30.30 "HgN/A
3:20 am41 °FMostly cloudy.5 mph100%30.30 "HgN/A
2:50 am43 °FMostly cloudy.1 mph93%30.30 "HgN/A
1:50 am43 °FPassing clouds.3 mph93%30.30 "HgN/A
12:50 am43 °FPassing clouds.3 mph93%30.30 "HgN/A
12:20 am43 °FLight rain. Passing clouds.6 mph93%30.30 "Hg6 mi
Weather by CustomWeather, © 2016

See weather overviewHow to use our weather pages